Location: Deep South Regional Star Gaze
(30.9929°N, 90.9586°W)
Time: 09:54:10
(UTC-06:00)

Daily predictions for brighter satellites

Satellite Brightness Start Highest point End
(mag) Time Altitude Azimuth Time Altitude Azimuth Time Altitude Azimuth
COSMO-SKYMED 1 3.3 18:18:31 10° N 18:22:48 59° WNW 18:27:02 10° SSW
ERBS 3.3 18:20:04 10° NNW 18:23:09 29° NE 18:26:12 10° ESE
ATLAS 2A CENTAUR R/B 1.7 18:21:53 10° WSW 18:23:46 36° S 18:28:10 10° ESE
FREGAT/IRIS 3.8 18:24:32 10° SE 18:27:05 24° ENE 18:29:38 10° NNE
Cosmos 1697 Rocket 3.8 18:24:07 10° NNW 18:29:32 49° WSW 18:34:55 10° S
Cosmos 2360 Rocket 4.0 18:29:59 10° NE 18:31:16 11° NE 18:32:33 10° ENE
Cosmos 1745 Rocket 4.1 18:25:26 10° S 18:31:46 89° WSW 18:38:07 10° N
METEOR-M 4.2 18:27:25 10° SSE 18:32:36 54° ENE 18:37:48 10° N
Cosmos 1980 Rocket 2.3 18:26:56 10° NNW 18:32:39 84° WSW 18:38:20 10° SSE
Cosmos 1190 Rocket 3.9 18:30:31 10° S 18:35:40 77° ESE 18:40:52 10° NNE
Cosmos 2151 Rocket 3.8 18:31:53 10° SSE 18:36:10 48° E 18:40:31 10° NNE
NOAA 12 4.1 18:31:22 10° SSE 18:36:34 61° ENE 18:41:49 10° N
ALOS 3.0 18:36:01 10° SE 18:40:03 30° ENE 18:44:07 10° NNE
SJ-6B 3.1 18:37:08 10° SSE 18:41:01 45° ENE 18:44:51 10° N
Meteor 1-18 Rocket 4.2 18:35:48 10° N 18:41:17 60° E 18:46:49 10° SSE
TSX-5 4.0 18:39:05 10° S 18:42:11 33° ESE 18:44:47 12° NE
Cosmos 1140 Rocket 4.3 18:38:50 10° SSE 18:43:03 27° E 18:47:19 10° NE
SL-8 R/B 4.2 18:38:42 10° NW 18:43:18 43° NE 18:47:05 15° ESE
GEOS 3 Rocket 4.1 18:40:15 10° NNE 18:45:26 62° NW 18:50:38 10° SW
Cosmos 1386 Rocket 4.5 18:40:22 10° S 18:46:32 90° ESE 18:52:38 10° N
Spot 2 Rocket 4.3 18:43:37 10° SE 18:47:53 28° ENE 18:52:10 10° NNE
Okean 1 Rocket 4.2 18:45:15 10° SE 18:48:43 22° E 18:52:11 10° NE
Gbstr 26 Del rocket 3.6 18:45:27 10° SSW 18:48:55 30° SE 18:50:41 20° E
Cosmos 2292 Rocket 3.8 18:46:35 10° S 18:50:44 59° E 18:56:20 10° NNE
PSLV R/B 3.0 18:52:03 10° WNW 18:55:11 76° NNE 18:56:51 25° ESE
Cosmos 1461 4.1 18:53:05 10° N 18:56:10 21° NE 18:56:31 21° ENE
ASTRO E2 2.7 18:56:18 10° W 19:00:20 84° S 19:02:28 27° ESE
Cosmos 1633 2.8 18:56:57 10° SSE 19:00:27 44° E 19:03:59 10° NNE
HJ-1C 3.5 18:59:00 10° SSE 19:02:15 48° ENE 19:05:32 10° N
SL-16 R/B 2.2 18:57:23 10° N 19:02:58 58° ENE 19:08:32 10° SSE
ATLAS CENTAUR R/B 3.6 18:59:11 10° S 19:04:03 20° SE 19:04:45 19° SE
Cosmos 1954 Rocket 3.9 18:59:22 10° S 19:04:27 64° ESE 19:09:36 10° NNE
H-2A R/B (2) 2.0 19:05:07 10° SW 19:07:59 30° SSE 19:08:38 27° SE
Meteor 1-13 Rocket 4.5 19:05:50 10° N 19:11:06 43° E 19:16:25 10° SSE
CENTAUR R/B 3.4 19:03:02 10° NW 19:11:07 72° WSW 19:19:26 10° SSE
Cosmos 44 Rocket 3.5 19:09:24 10° NNW 19:14:04 66° WSW 19:18:40 10° SSE
Okean 1 3.3 19:11:54 10° N 19:15:57 87° W 19:20:01 10° S
Cosmos 1340 2.8 19:14:43 10° N 19:18:12 46° ENE 19:18:12 46° ENE
Cosmos 2322 Rocket 2.1 19:16:44 10° NNW 19:22:21 90° NE 19:27:58 10° SSE
GOES 2 Rocket 3.8 19:18:20 10° W 19:22:44 43° SSW 19:24:15 30° SSE
SL-19 R/B 4.2 19:17:22 10° SSE 19:22:53 72° ENE 19:28:39 10° N
Tiangong 2 3.5 19:21:52 10° NNW 19:22:55 14° N 19:22:55 14° N
Resurs 01 Rocket 1.5 19:22:29 10° SSE 19:26:54 80° ENE 19:31:18 10° N
NOSS 8 (E) 4.3 19:24:09 10° SSW 19:27:34 73° SE 19:27:34 73° SE
Cosmos 1536 Rocket 3.8 19:26:18 10° N 19:30:44 72° W 19:35:11 10° S
H-2A R/B 2.5 19:33:51 83° SE 19:33:59 87° ENE 19:37:42 10° N
Helios 1B rocket 2.3 19:33:19 52° NE 19:34:14 74° ESE 19:38:21 10° S
Meteor 1-11 Rocket 3.8 19:33:27 10° S 19:39:09 80° W 19:45:00 10° N
FENGYUN 3A 4.1 19:35:29 10° S 19:40:49 62° W 19:46:11 10° NNW
Cosmos 2181 Rocket 3.9 19:34:32 10° N 19:40:49 90° ESE 19:47:09 10° S
Meteor 2-4 Rocket 4.0 19:35:56 10° N 19:40:14 43° NE 19:40:14 43° NE
Cosmos 1741 Rocket 3.9 19:36:31 10° S 19:41:41 64° ESE 19:42:08 61° ENE
DNEPR-1 R/B 3.3 19:38:11 10° NNW 19:42:23 88° WSW 19:42:35 81° SSE
Cosmos 44 3.8 19:38:21 10° NW 19:42:34 50° WSW 19:44:51 24° S
H-2A ROCKET BODY 4.2 19:31:46 10° W 19:44:19 26° SW 19:48:29 11° S
BREEZE-M DEB (TANK) 3.8 19:40:42 10° WSW 19:44:54 34° NW 19:45:04 33° NW
DELTA 2 R/B (1) 4.3 19:40:59 10° WNW 19:46:11 38° N 19:46:45 37° NNE
Centaur D-1A AC-35 4.2 19:26:28 10° W 19:46:12 42° SSW 19:49:06 25° SSE
SL-08 ROCKET BODY 4.3 19:45:55 10° S 19:52:02 86° E 19:58:16 10° N
Resurs 1-3 4.2 19:50:41 13° S 19:54:25 56° W 19:58:45 10° NNW
Cosmos 2184 Rocket 3.8 19:49:34 10° S 19:55:54 79° E 20:02:13 10° N
Cosmos 2074 Rocket 3.8 19:51:13 10° S 19:57:28 85° E 20:03:45 10° N
Cosmos 2219 3.2 19:57:07 10° SSW 20:02:18 73° S 20:02:18 73° S
Cosmos 2360 Rocket 2.6 20:10:14 10° NNW 20:14:35 55° NNW 20:14:35 55° NNW
